SCP
0 0 0 1 1 1 0 1 1 1 2 2 2 2 2 3 6 11 14 15 14 15 19 21 19 16 43 68 36 6 5 5 5 5 4 3 3 3 4 4 4 4 4 4
0 0 0 1 1 1 1 1 1 2 2 2 2 2 2 4 7 11 13 14 13 12 13 14 14 14 27 33 21 6 5 5 5 5 5 4 4 3 4 4 5 5 5 4
0 0 0 0 1 1 1 1 2 2 2 2 2 2 3 4 6 8 11 13 12 10 8 7 8 9 11 10 8 6 6 6 6 6 6 5 5 5 5 5 6 6 6 5
0 0 0 1 1 1 1 1 2 2 3 3 3 4 5 5 5 6 10 13 14 11 7 5 5 6 7 8 8 7 7 6 7 8 7 6 6 6 7 7 7 6 9 12
0 0 1 1 1 1 1 1 2 3 4 4 5 8 8 8 7 9 13 16 15 12 8 6 6 7 8 9 8 8 8 7 8 10 8 6 6 7 8 9 8 7 10 18
0 0 1 1 1 1 2 2 2 3 4 5 7 9 10 11 11 13 17 18 15 11 8 6 7 8 10 10 10 9 8 7 7 8 7 6 6 8 9 10 9 7 8 11
0 1 1 1 1 1 2 2 2 2 4 5 7 9 10 12 13 15 16 15 12 9 8 7 7 8 10 10 9 9 8 7 6 6 6 6 7 8 9 10 9 8 6 4
0 1 1 1 1 1 2 2 2 3 5 8 10 10 10 10 11 11 11 10 9 8 7 7 7 8 8 8 7 7 7 6 6 6 5 5 6 8 10 10 10 8 6 4
1 1 1 1 2 2 2 3 5 7 9 11 11 10 8 8 8 7 7 6 6 7 8 8 8 8 7 6 6 6 6 6 5 5 4 4 5 7 10 11 11 9 6 4
2 2 2 2 2 3 3 4 6 8 9 9 8 6 6 6 5 5 4 4 5 6 8 8 8 7 6 6 6 6 6 5 4 3 2 2 3 4 7 9 10 8 5 3
2 2 2 2 2 3 3 4 5 5 5 5 4 4 4 4 4 4 4 4 5 8 9 9 8 7 6 7 7 7 5 4 3 2 2 2 2 2 4 5 5 5 4 3
2 2 2 1 1 2 2 2 3 3 2 2 2 3 3 4 4 5 4 4 6 9 9 7 7 6 6 7 7 8 7 5 4 3 2 1 2 2 2 2 2 2 2 2
1 1 1 1 1 1 1 1 2 2 2 3 3 3 3 4 4 4 4 4 5 6 6 4 4 4 5 5 6 7 7 7 6 4 3 2 2 2 2 2 1 1 1 1
1 2 2 2 2 1 1 2 2 3 3 3 3 3 3 3 4 3 3 4 4 4 4 3 3 3 3 3 4 5 6 7 6 5 4 2 2 2 2 2 1 1 0 0
1 2 2 3 2 2 3 3 3 3 3 3 3 3 3 3 3 2 2 3 4 4 4 4 4 3 3 2 2 4 5 5 5 5 4 3 1 2 2 2 1 1 0 0
1 2 2 3 3 3 4 4 4 3 3 3 3 3 3 3 2 2 2 2 3 3 3 3 3 3 3 2 2 3 4 3 3 4 4 3 1 1 2 2 1 1 1 1
1 1 1 2 3 3 4 4 3 3 3 3 3 3 3 2 2 1 1 2 2 3 3 3 2 2 3 2 2 3 3 2 2 2 3 2 1 1 1 2 2 2 2 1
1 1 1 1 1 2 3 3 3 3 3 3 3 3 3 2 2 1 1 1 1 2 2 2 2 1 2 2 1 2 2 2 1 2 3 2 1 0 1 1 2 2 2 1
1 1 0 0 1 1 1 2 2 2 2 2 2 2 2 2 2 2 1 1 1 1 2 1 1 1 1 1 1 1 1 1 1 2 2 2 1 0 0 1 1 2 1 1
1 1 1 1 1 1 1 1 1 2 2 2 2 2 2 1 1 2 2 1 1 1 1 1 0 0 1 1 1 1 1 1 1 1 1 1 1 0 0 1 1 2 2 1
1 1 1 1 1 1 1 1 1 1 1 1 1 1 1 1 1 1 1 1 1 1 1 1 1 1 1 1 1 1 1 1 1 1 1 0 0 0 0 1 1 1 1 2
1 1 1 1 1 1 1 1 1 1 1 1 1 1 1 1 1 1 1 1 1 1 1 1 1 1 1 1 1 1 1 1 1 1 1 1 0 0 0 0 1 1 1 1
1 1 1 1 1 1 0 0 0 1 1 1 0 0 1 1 1 1 1 1 1 1 1 1 1 1 1 1 1 1 1 1 1 1 1 1 0 0 0 0 0 1 1 1
2 2 1 1 1 1 0 0 0 0 0 0 0 0 0 0 0 1 1 1 1 1 1 1 1 0 0 1 1 1 1 1 1 1 1 1 0 0 0 0 0 1 1 1
2 2 2 1 1 1 0 0 0 0 0 0 0 0 0 0 0 0 0 1 1 1 1 1 1 0 1 1 1 1 1 1 1 1 1 1 0 0 0 0 1 1 1 1
2 2 2 1 1 1 0 0 0 0 0 0 0 0 0 0 0 0 0 1 1 1 1 1 1 0 1 1 1 1 1 1 1 1 1 1 1 0 0 0 0 0 0 0
1 1 1 1 1 1 0 0 0 0 0 0 0 0 0 0 0 0 0 0 0 1 1 1 1 1 1 1 1 1 0 0 0 1 1 1 1 0 0 0 0 0 0 0
Wind_Speed
4 3 1 1 1 1 3 6 6 5 6 6 6 7 5 6 6 6 5 5 5 5 5 5 5 4 5 5 4 5 5 4 4 3 2 2 2 2 2 2 3 3 2 1
2 1 3 3 3 0 1 4 5 5 3 3 4 5 5 6 7 6 5 5 4 5 5 5 4 4 4 4 4 5 5 4 3 3 3 2 2 2 2 2 2 2 2 2
2 2 4 3 2 1 2 2 5 5 5 4 6 7 7 7 7 7 6 5 5 4 5 4 4 5 5 5 4 4 4 3 3 3 3 3 3 2 2 2 2 2 1 1
1 3 1 6 2 5 7 3 2 4 6 7 7 5 5 6 8 6 6 5 5 4 4 3 3 4 3 4 4 4 3 3 3 3 2 2 2 2 2 2 2 2 1 1
3 2 2 3 1 3 5 2 1 5 7 8 9 9 5 2 5 7 6 6 5 5 5 4 3 3 4 3 3 3 3 3 3 3 3 2 2 2 2 2 2 2 2 2
4 3 4 5 3 2 8 2 2 4 7 8 7 5 2 1 4 5 5 5 5 5 5 4 2 3 5 3 2 2 2 3 3 3 3 3 3 2 1 2 2 2 1 1
3 3 4 5 4 3 4 5 3 4 7 6 4 5 5 4 4 4 5 5 6 6 4 3 3 4 4 3 2 2 1 1 1 2 2 2 1 1 1 0 0 1 1 0
3 3 5 5 3 4 5 3 4 5 5 6 7 7 6 6 4 4 5 5 6 5 3 2 4 5 3 2 1 1 1 2 1 1 1 2 2 1 1 1 0 0 0 0
5 5 5 0 4 4 5 5 4 4 5 8 9 7 6 5 4 3 4 4 4 5 4 2 3 4 4 1 1 2 2 2 2 2 2 2 2 2 1 1 1 0 0 0
2 1 1 2 4 4 4 5 5 6 7 8 7 7 6 5 4 3 3 4 4 5 4 3 2 3 3 2 2 3 3 2 2 2 1 1 1 1 1 1 1 1 1 1
1 1 3 4 3 4 5 7 8 6 7 7 8 7 6 5 4 3 3 3 4 4 4 3 2 2 2 3 3 3 3 2 1 1 1 1 1 0 1 1 2 3 3 3
3 4 3 2 1 4 6 7 7 7 6 6 7 7 6 5 4 4 4 4 4 3 3 2 3 2 1 2 3 3 2 1 1 1 1 1 1 1 3 2 1 0 2 2
4 2 3 2 3 5 6 6 7 7 7 6 5 6 6 5 4 4 3 4 4 3 3 2 2 1 0 1 3 3 2 1 1 1 1 1 1 1 1 4 4 3 0 1
2 4 4 3 3 4 5 6 6 6 6 7 6 5 5 4 4 4 4 3 3 3 3 3 2 1 1 1 2 2 1 1 1 1 1 1 2 2 2 1 1 2 2 2
1 3 4 3 3 4 5 6 7 5 4 4 5 5 5 5 4 3 3 4 4 3 2 2 2 1 1 1 2 1 1 1 1 1 1 1 1 1 1 2 1 1 1 2
3 4 5 5 4 3 4 5 5 3 3 4 4 4 4 5 4 3 3 4 5 4 3 2 2 2 1 1 1 1 1 2 1 1 1 1 1 1 1 1 1 1 2 2
4 3 4 4 4 4 3 4 5 4 4 4 4 5 5 5 4 3 2 3 3 3 3 3 2 1 1 1 1 1 1 1 1 1 1 1 1 1 2 2 2 2 2 2
5 6 7 7 6 5 4 4 5 5 4 4 5 5 5 5 4 3 2 2 2 2 0 2 2 2 1 1 1 1 1 1 1 2 1 1 2 2 2 2 2 2 2 1
3 4 5 6 6 6 5 5 5 4 4 4 5 5 4 4 4 4 3 3 3 2 2 2 2 2 2 2 1 1 2 2 1 2 2 2 1 1 1 2 2 2 2 1
3 5 6 6 6 6 5 5 5 4 4 4 4 4 3 3 4 4 3 3 3 4 4 3 3 2 2 3 2 1 2 2 2 1 1 1 2 2 2 2 2 2 2 2
4 6 6 6 5 4 4 5 5 4 3 3 4 4 3 3 3 3 3 2 3 2 2 3 2 2 2 3 3 2 2 2 2 2 2 2 2 2 2 2 1 1 1 1
4 5 6 6 5 4 3 3 4 4 4 3 3 3 3 2 2 2 2 3 3 3 2 2 2 3 3 2 2 2 2 2 2 2 2 2 2 2 2 1 1 1 1 1
3 4 4 5 5 4 2 2 3 3 3 3 3 4 4 3 3 3 3 3 3 4 3 2 3 4 4 2 1 2 2 2 2 2 2 2 2 2 2 2 2 2 2 2
3 3 3 3 4 4 2 1 2 2 2 2 3 3 3 2 1 2 2 3 3 3 2 3 4 4 3 1 1 1 2 2 2 2 2 2 2 2 2 2 2 2 2 2
3 3 3 3 2 2 2 2 1 1 1 1 1 2 2 2 3 2 2 2 3 2 1 2 3 3 2 1 1 1 2 2 1 1 1 1 1 2 2 2 2 2 2 2
2 1 1 2 1 1 1 1 1 1 1 1 0 0 1 1 2 1 1 2 2 2 2 1 1 1 1 1 1 1 1 1 0 1 1 1 1 1 2 2 2 2 2 2
1 1 1 1 0 1 1 2 2 1 2 2 1 1 1 1 1 1 1 1 1 1 1 1 1 1 1 1 1 1 0 0 0 1 1 1 1 1 2 2 2 1 1 1
Wind_Direction
208 216 139 302 282 202 144 164 163 187 184 205 193 182 166 143 129 118 115 122 136 143 142 136 135 141 146 142 140 143 142 153 175 177 161 151 153 153 142 147 155 151 141 156
350 27 61 20 331 227 128 135 139 139 187 215 169 142 128 127 122 118 124 128 126 124 130 132 134 136 135 139 146 144 147 162 170 163 155 156 159 147 137 139 140 138 147 169
277 319 47 347 312 88 73 86 146 167 197 150 120 127 139 142 135 134 136 130 132 136 136 143 149 147 150 156 145 138 146 156 165 171 172 180 171 150 160 161 142 142 157 143
124 55 182 243 216 110 92 57 83 130 148 142 134 127 119 139 142 137 139 144 145 140 134 137 140 140 144 144 145 144 152 165 170 167 174 170 154 168 185 168 162 171 171 170
117 150 246 287 285 145 120 43 42 126 130 127 116 89 62 77 135 148 153 153 150 141 139 134 141 137 129 128 146 151 161 174 181 175 173 166 169 195 185 168 178 188 179 171
126 148 211 249 282 153 106 88 307 126 134 140 119 110 197 181 114 112 111 123 127 127 119 118 138 131 119 128 130 173 187 187 180 173 171 185 199 196 174 163 186 181 169 172
148 177 251 268 289 74 112 209 216 148 142 135 137 161 164 127 97 98 105 115 122 116 119 139 132 111 112 129 160 205 184 160 165 169 178 180 167 127 119 109 195 182 174 208
135 156 250 293 48 122 186 182 143 135 131 125 119 112 115 114 109 100 98 103 112 118 128 129 121 118 115 128 171 120 100 93 90 113 139 119 117 102 103 122 119 240 101 352
173 202 234 272 128 151 140 121 120 120 124 127 119 115 122 125 128 119 110 117 121 125 124 112 116 123 129 148 123 111 94 95 107 95 78 105 128 137 137 140 134 162 154 255
82 330 356 66 93 91 103 109 111 119 122 120 123 127 127 124 123 120 117 123 131 129 125 123 120 127 130 131 123 113 105 102 104 110 93 66 75 110 149 174 171 175 175 212
70 311 46 36 72 95 83 94 99 100 112 124 125 124 131 131 131 127 115 107 117 131 131 128 112 111 119 128 129 125 122 116 109 115 126 91 63 90 184 225 204 196 203 195
206 227 164 219 177 100 102 103 105 105 100 113 125 133 131 133 137 132 121 114 109 109 114 116 107 97 118 138 129 129 125 129 153 162 168 142 122 20 14 5 354 125 185 186
192 191 148 138 83 80 104 112 108 111 118 116 114 124 129 136 139 134 125 122 127 130 133 124 116 124 209 144 130 136 152 170 182 182 180 172 170 155 17 358 7 20 323 186
132 105 89 86 98 85 99 107 104 103 112 119 120 116 119 121 123 126 134 145 137 131 132 136 140 162 205 139 122 135 158 175 174 187 188 184 188 194 183 191 295 319 316 292
163 131 138 124 89 88 104 105 101 103 109 111 121 123 125 134 142 145 151 145 129 123 129 136 141 203 219 152 138 145 170 203 208 207 202 197 193 191 193 196 224 269 309 320
144 120 116 112 111 113 115 119 120 129 128 128 128 138 145 143 138 135 133 138 136 144 162 164 183 215 180 138 136 151 206 226 210 198 215 214 192 200 208 207 215 238 250 254
136 149 148 150 152 152 149 152 149 149 142 139 145 141 129 117 113 118 134 147 153 162 170 173 202 201 159 158 175 212 236 246 246 206 202 217 213 212 210 207 213 230 241 233
173 176 169 164 161 154 149 145 142 144 153 157 140 129 131 140 154 164 162 139 118 105 181 200 188 180 183 190 192 200 223 239 220 212 217 223 213 211 211 209 214 225 240 234
160 159 154 148 147 144 143 144 147 147 145 139 138 146 156 165 171 171 156 143 151 181 236 218 187 175 214 238 236 207 220 230 234 225 213 217 221 221 219 217 221 228 223 213
124 131 130 129 128 130 136 140 138 138 144 145 139 146 159 176 173 167 161 177 204 208 205 195 180 192 229 238 242 222 230 231 232 235 231 214 216 232 236 229 221 221 226 222
112 117 119 119 118 116 124 133 135 142 151 151 153 167 181 188 172 163 160 205 247 224 191 184 187 217 233 239 236 229 235 237 229 215 214 219 221 228 232 233 227 221 225 232
108 117 118 118 113 111 119 130 138 144 146 152 161 160 160 172 178 184 209 216 225 207 186 197 219 233 237 236 224 229 232 230 230 221 216 213 209 211 220 222 217 218 218 217
100 113 120 124 127 129 123 130 144 152 160 168 173 179 183 192 188 183 225 236 209 207 202 212 230 242 243 229 221 233 236 228 220 221 218 210 209 207 208 211 212 215 214 220
92 100 112 121 121 119 133 182 174 171 173 176 182 184 181 182 218 224 206 206 204 203 214 225 232 237 225 216 218 237 232 224 224 235 223 207 206 205 207 210 216 216 213 220
93 99 100 105 120 160 186 184 148 123 123 132 144 167 174 173 183 209 205 194 189 190 221 235 238 231 207 199 223 234 237 238 230 216 209 208 216 210 210 212 216 215 214 215
108 127 143 151 165 180 169 144 136 146 137 137 153 204 167 146 154 168 176 192 192 190 198 219 227 205 186 195 218 228 231 253 228 172 178 191 217 214 213 218 229 228 220 218
106 116 107 85 101 138 127 127 135 154 161 160 180 212 179 155 155 172 171 172 187 192 198 213 201 178 180 187 202 222 225 267 235 206 208 219 218 218 221 226 234 234 226 217